COSMOS 2251 DEB

Satellite information

Favourite Embed

Satellite Type and Status

DEBRISIN ORBIT

Key statistics

Satellite COSMOS 2251 DEB at a glance.

Uptime

11649

Days in orbit

Revolutions

≈ 14.4

Per day

Orbit

LEO

Low Earth Orbit

Inclination

74.0

Latest

Satellite identification and parameters

Extended collection of information and parameters for COSMOS 2251 DEB.

Object identification

Identified? True

Debris? True

Object name: COSMOS 2251 DEB

International designator: 1993-036BQZ

Object number (NORAD): 37998

Object ID (CCSDS): 37998

Country: COMMONWEALTH OF INDEPENDENT STATES (CIS)

Current information (Y/N): Y

RCS size: SMALL

Orbital parameters

Period: 99.69 minutes

Inclination: 74.0366 deg

SMA: 7121.887 km

Apoapsis: 757.981 km

Periapsis: 729.522 km

RAAN: 303.187 deg

Eccentricy: 0.001998

Argument of periapsis: 79.2872 deg

Mean anomaly: 281.0534 deg

Mean motion: 14.44475451 rev/day

Mean motion (dot): 0.00003883 rev/day2

B* drag term: 0.0011292 1/REarth

Two-line elements (TLE)

Creation date: April 27, 2025, 2:38 a.m.

Reference frame: TEME

Reference center: EARTH

Epoch: April 26, 2025, 9 p.m. UTC

TLE line 0: 0 COSMOS 2251 DEB

TLE line 1: 1 37998U 93036BQZ 25116.87568221 .00003883 00000-0 11292-2 0 9990

TLE line 2: 2 37998 74.0366 303.1870 0019980 79.2872 281.0534 14.44475451609678

Live tracking on map

Real-time ground track for satellite COSMOS 2251 DEB.

In-orbit conjunctions

A list of the most updated potential collisions computed for object COSMOS 2251 DEB.

Target Orbit TCA Probability of collision Miss distance Type
COSMOS 1937 LEO 2024-10-30 15:01:09 0.0001973262 301.0 (m) PAYLOAD

Associated space launch

Military communications satellite. Destroyed in a collision with Iridium 33.

COSMOS 2251 DEB was lifted into orbit during the mission ‘Kosmos-3M | Strela-2M 51’, on board a Kosmos-3M space rocket.

The launch took place on June 16, 1993, 4:17 a.m. from 132/1 (132L).

For more information about the launch, click the button.

Launch to space Kosmos-3M | Strela-2M 51
Kosmos-3M | Strela-2M 51

Agency: N/A

Status: Launch Successful

Launch date: June 16, 1993, 4:17 a.m. UTC

Rocket: Kosmos-3M

Launch pad: 132/1 (132L)

Location: Plesetsk Cosmodrome, Russian Federation

...

Latest news about this satellite

There are no fresh news available about this satellite. Check back as we update our databases every day.


Newsletter sign-up

Weekly statistics, charts and insights to help you stay on top of the space industry.